sat.trackr.live / text

‹ back to catalog

STARLINK-35051

NORAD 65380 · 2025-191B

PAYLOAD ACTIVE UNKNOWN

§ Identity

Operator
Country
US
Launch date
2025-08-30
Launch site
AFWTR
Launch vehicle
Mass (kg)
RCS (m²)

Purposes: comms

External: N2YO · Heavens-Above · Gunter

§ Orbital elements

Epoch: 2026-05-25T03:08:04.670304Z

Period
95.64 min
Inclination
97.4532°
Eccentricity
0.0001958
Mean motion
15.05662192 rev/d
Perigee alt
548.1 km
Apogee alt
550.8 km
Semi-major
6,927.6 km
B*
3.8797e-4
RAAN
16.5270°
Arg perigee
77.3556°
Mean anomaly
282.7890°
Rev number
4,178

§ Raw data

STARLINK-350511 65380U 25191B   26145.13060961  .00005545  00000+0  38797-3 0  99992 65380  97.4532  16.5270 0001958  77.3556 282.7890 15.05662192 41784

JSON: /api/v1/satellites/65380 · /tle

For live sub-satellite position, see the globe view (requires WebGL).

§ Visibility from observer

Set your observer location to see the next 7 days of passes ≥ 10°. The values pass through the URL so the page stays shareable.

No JS? Fill the form by hand. The geolocation button needs JavaScript.